TimeCDT,TemperatureF,Dew PointF,Humidity,Sea Level PressureIn,VisibilityMPH,Wind Direction,Wind SpeedMPH,Gust SpeedMPH,PrecipitationIn,Events,Conditions,WindDirDegrees,DateUTC
12:15 AM,69.8,66.2,88,29.95,10.0,ESE,5.8,-,N/A,,Mostly Cloudy,120,2013-10-01 05:15:00
12:35 AM,69.8,66.2,88,29.95,10.0,SE,6.9,-,N/A,,Mostly Cloudy,130,2013-10-01 05:35:00
12:55 AM,69.8,66.2,88,29.95,10.0,SE,5.8,-,N/A,,Mostly Cloudy,130,2013-10-01 05:55:00
1:35 AM,69.8,68.0,94,29.95,10.0,SE,4.6,-,N/A,,Overcast,130,2013-10-01 06:35:00
2:15 AM,69.8,68.0,94,29.95,10.0,SSE,3.5,-,N/A,,Overcast,150,2013-10-01 07:15:00
2:35 AM,69.8,68.0,94,29.95,10.0,SSE,3.5,-,N/A,,Overcast,150,2013-10-01 07:35:00
3:35 AM,69.8,68.0,94,29.96,10.0,SE,6.9,-,N/A,,Overcast,140,2013-10-01 08:35:00
3:55 AM,69.8,68.0,94,29.96,10.0,SSE,4.6,-,N/A,,Overcast,150,2013-10-01 08:55:00
4:15 AM,69.8,66.2,88,29.96,10.0,SSE,6.9,-,N/A,,Overcast,160,2013-10-01 09:15:00
4:35 AM,69.8,68.0,94,29.96,9.0,SSE,6.9,-,N/A,,Overcast,160,2013-10-01 09:35:00
4:55 AM,69.8,66.2,88,29.97,6.0,SSE,8.1,-,N/A,,Overcast,150,2013-10-01 09:55:00
5:15 AM,69.8,68.0,94,29.98,5.0,SSE,6.9,-,N/A,,Overcast,150,2013-10-01 10:15:00
5:35 AM,69.8,68.0,94,29.98,5.0,SSE,9.2,-,N/A,,Overcast,150,2013-10-01 10:35:00
5:55 AM,69.8,68.0,94,29.99,4.0,SSE,6.9,-,N/A,,Overcast,150,2013-10-01 10:55:00
6:15 AM,69.8,68.0,94,29.99,3.0,SSE,9.2,-,N/A,,Overcast,150,2013-10-01 11:15:00
6:55 AM,69.8,68.0,94,30.00,3.0,SSE,6.9,-,N/A,,Overcast,150,2013-10-01 11:55:00
7:35 AM,69.8,68.0,94,30.01,1.5,SSE,8.1,-,N/A,,Overcast,160,2013-10-01 12:35:00
7:55 AM,69.8,69.8,100,30.01,1.8,SSE,5.8,-,N/A,,Overcast,160,2013-10-01 12:55:00
8:15 AM,69.8,69.8,100,30.02,2.5,SSE,6.9,-,N/A,,Overcast,160,2013-10-01 13:15:00
8:35 AM,69.8,69.8,100,30.02,2.5,South,5.8,-,N/A,,Overcast,170,2013-10-01 13:35:00
8:55 AM,69.8,69.8,100,30.03,2.5,SSE,6.9,-,N/A,,Overcast,150,2013-10-01 13:55:00
9:15 AM,69.8,69.8,100,30.03,2.0,SSE,9.2,-,N/A,,Overcast,160,2013-10-01 14:15:00
9:35 AM,71.6,69.8,94,30.04,1.8,South,8.1,-,N/A,,Overcast,170,2013-10-01 14:35:00
9:55 AM,71.6,69.8,94,30.04,2.5,South,8.1,-,N/A,,Overcast,170,2013-10-01 14:55:00
10:35 AM,73.4,69.8,88,30.05,9.0,South,9.2,-,N/A,,Overcast,180,2013-10-01 15:35:00
10:55 AM,73.4,69.8,88,30.04,10.0,South,10.4,-,N/A,,Overcast,170,2013-10-01 15:55:00
11:15 AM,75.2,71.6,89,30.04,10.0,South,10.4,-,N/A,,Overcast,170,2013-10-01 16:15:00
11:35 AM,75.2,69.8,83,30.04,10.0,South,8.1,-,N/A,,Overcast,180,2013-10-01 16:35:00
12:15 PM,77.0,69.8,78,30.04,10.0,SSW,9.2,-,N/A,,Overcast,200,2013-10-01 17:15:00
12:35 PM,77.0,69.8,78,30.03,10.0,SSW,9.2,-,N/A,,Overcast,200,2013-10-01 17:35:00
12:55 PM,78.8,69.8,74,30.03,10.0,South,9.2,-,N/A,,Overcast,190,2013-10-01 17:55:00
1:55 PM,80.6,69.8,70,30.00,10.0,SSE,8.1,-,N/A,,Overcast,150,2013-10-01 18:55:00
2:15 PM,82.4,69.8,66,30.00,10.0,South,9.2,-,N/A,,Mostly Cloudy,190,2013-10-01 19:15:00
2:55 PM,82.4,71.6,70,29.99,10.0,South,8.1,-,N/A,,Mostly Cloudy,180,2013-10-01 19:55:00
3:15 PM,82.4,69.8,66,29.98,10.0,South,9.2,-,N/A,,Partly Cloudy,170,2013-10-01 20:15:00
3:55 PM,82.4,69.8,66,29.98,10.0,South,5.8,-,N/A,,Mostly Cloudy,170,2013-10-01 20:55:00
4:15 PM,82.4,69.8,66,29.97,10.0,South,9.2,-,N/A,,Mostly Cloudy,170,2013-10-01 21:15:00
4:55 PM,80.6,69.8,70,29.97,10.0,SSE,11.5,-,N/A,,Overcast,160,2013-10-01 21:55:00
5:15 PM,82.4,69.8,66,29.98,10.0,South,12.7,-,N/A,,Mostly Cloudy,190,2013-10-01 22:15:00
5:35 PM,82.4,69.8,66,29.98,10.0,South,13.8,17.3,N/A,,Scattered Clouds,180,2013-10-01 22:35:00
6:15 PM,80.6,69.8,70,29.98,10.0,South,11.5,-,N/A,,Clear,170,2013-10-01 23:15:00
6:35 PM,78.8,69.8,74,29.98,10.0,South,6.9,-,N/A,,Clear,180,2013-10-01 23:35:00
6:55 PM,77.0,69.8,78,29.99,10.0,South,6.9,-,N/A,,Clear,170,2013-10-01 23:55:00
7:35 PM,73.4,69.8,88,29.99,10.0,SSE,9.2,-,N/A,,Clear,150,2013-10-02 00:35:00
8:15 PM,73.4,69.8,88,30.00,10.0,SSE,6.9,-,N/A,,Clear,160,2013-10-02 01:15:00
8:35 PM,73.4,69.8,88,30.01,10.0,SSE,6.9,-,N/A,,Clear,160,2013-10-02 01:35:00
8:55 PM,71.6,69.8,94,30.01,10.0,SSE,8.1,-,N/A,,Clear,150,2013-10-02 01:55:00
9:35 PM,71.6,69.8,94,30.03,10.0,Calm,Calm,-,N/A,,Clear,0,2013-10-02 02:35:00
10:15 PM,71.6,68.0,88,30.03,10.0,SSE,5.8,-,N/A,,Clear,160,2013-10-02 03:15:00
10:35 PM,69.8,68.0,94,30.03,10.0,South,6.9,-,N/A,,Clear,170,2013-10-02 03:35:00
10:55 PM,71.6,68.0,88,30.03,10.0,South,5.8,-,N/A,,Clear,170,2013-10-02 03:55:00
11:35 PM,69.8,66.2,88,30.04,10.0,ESE,3.5,-,N/A,,Clear,120,2013-10-02 04:35:00
11:55 PM,69.8,68.0,94,30.03,10.0,Calm,Calm,-,N/A,,Clear,0,2013-10-02 04:55:00